Regional Weather Roundup
Issued by NWS

Home | Current Version | Previous Version | Graphics & Text | Print | Product List | Glossary On
Versions: 1 2 3 4 5 6 7 8 9 10 11 12 13 14 15 16 17 18 19 20 21 22 23 24 25 26 27 28 29 30 31 32 33 34 35 36 37 38 39 40 41 42 43 44 45 46 47 48 49 50
000
ASUS45 KCYS 250210
RWRWY

WYOMING REGIONAL WEATHER ROUNDUP
NATIONAL WEATHER SERVICE CHEYENNE WY
800 PM MDT THU JUL 24 2014

NOTE:  "FAIR" INDICATES FEW OR NO CLOUDS BELOW 12,000 FEET
WITH NO SIGNIFICANT WEATHER AND/OR OBSTRUCTIONS TO VISIBILITY.

WYZ001-250300-
YELLOWSTONE NATIONAL PARK

CITY           SKY/WX    TMP DP  RH WIND       PRES   REMARKS
LK YELLOWSTONE   N/A     62  22  21 W6        30.24S
W YELLOWSTONE  NOT AVBL

$$
WYZ002>013-054>058-071-098>099-250300-
NORTHERN WYOMING

CITY           SKY/WX    TMP DP  RH WIND       PRES   REMARKS
JACKSON        CLEAR     72  21  15 S8        30.14S
CODY           NOT AVBL
GREYBULL       CLEAR     93  15   6 NW20      29.81R
WORLAND        CLEAR     88  31  13 SW10      29.84R
SHERIDAN       CLEAR     88  35  15 NW26G35   29.79R
BUFFALO        CLEAR     87  28  12 NW9       29.89R
GILLETTE       CLEAR     88  41  19 NW7       29.79R
HULETT         FAIR      81  61  50 MISG      29.80
NEWCASTLE      FAIR      91  28  10 W9        29.77

$$
WYZ014>020-022>026-101>103-250300-
CENTRAL WYOMING

CITY           SKY/WX    TMP DP  RH WIND       PRES   REMARKS
BIG PINEY      CLEAR     76  25  15 NW13      30.19R
PINEDALE       CLEAR     73  30  20 NW12      30.20R
DUBOIS         FAIR      72  23  16 W20G26    30.15S
LANDER         CLEAR     85  33  15 W13G23    29.97R
RIVERTON       CLEAR     87  33  14 W16       29.97R
CASPER         PTCLDY    90  30  11 W17G24    29.91S
DOUGLAS        PTCLDY    84  45  25 SW8       29.90S

$$
WYZ021-027>030-104>119-250300-
SOUTHERN WYOMING

CITY           SKY/WX    TMP DP  RH WIND       PRES   REMARKS
EVANSTON       PTCLDY    78  30  17 W14       30.19S
KEMMERER       CLEAR     77  30  18 W14       30.21R
FORT BRIDGER   FAIR      81  25  12 W15G23    30.20S
ROCK SPRINGS   PTCLDY    83  25  12 W21G31    30.13R
DIXON          FAIR      83  40  22 SW9       30.15S
RAWLINS        CLEAR     82  36  19 SW14G22   30.11S
SARATOGA       FAIR      81  34  18 SW10G17   30.16S
LARAMIE        MOCLDY    76  49  38 SW14      30.17S
CHEYENNE       CLEAR     81  48  31 W12       30.09R
TORRINGTON     PTCLDY    89  51  27 SW3       29.85S
PINE BLUFFS    FAIR      77  52  41 S6        30.01R

$$



USA.gov is the U.S. government's official web portal to all federal, state and local government web resources and services.